Location: LDNL
(36.4545°S, 141.6685°E)
Time: 16:49:21
(UTC+10:00)

Envisat - Visible Passes

Search period start: 24 September 2023 00:00
Search period end: 04 October 2023 01:00
Orbit: 763 x 764 km, 98.2° (Epoch: 23 September)

Date Brightness Start Highest point End Pass type
(mag) Time Alt. Az. Time Alt. Az. Time Alt. Az.
24 Sep 5.5 03:57:57 11° SSW 03:57:57 11° SSW 03:58:02 10° SSW visible
25 Sep 5.4 03:20:06 15° S 03:20:06 15° S 03:20:56 10° S visible
26 Sep 5.6 02:42:14 15° SSE 02:42:14 15° SSE 02:43:11 10° S visible
27 Sep 5.1 03:44:33 16° SSW 03:44:33 16° SSW 03:45:33 10° SSW visible
28 Sep 5.2 03:06:41 19° S 03:06:41 19° S 03:08:14 10° S visible
29 Sep 5.6 02:28:50 16° SSE 02:28:50 16° SSE 02:30:14 10° SSE visible
29 Sep 5.1 04:08:59 15° SSW 04:08:59 15° SSW 04:09:52 10° SSW visible
30 Sep 4.8 03:31:08 23° S 03:31:08 23° S 03:32:58 10° SSW visible
01 Oct 5.1 03:53:17 23° SSE 03:53:17 23° SSE 03:55:27 10° S visible
01 Oct 5.1 05:33:26 11° SW 05:33:26 11° SW 05:33:47 10° SW visible
02 Oct 5.7 03:15:25 15° SE 03:15:25 15° SE 03:17:06 10° SSE visible
02 Oct 4.6 04:55:35 22° SSW 04:55:35 22° SSW 04:57:26 10° SSW visible
03 Oct 4.5 04:17:43 30° S 04:17:43 30° S 04:20:19 10° S visible
